• In Portugal
  • List of Countries
  • For 7 days
  • Water Temperature
  • Satellite Maps
  • Weather Map
  • Weather Widgets
  • user-avatar
    Login

    Hourly Weather Mostar

    Today, 18 August, Saturday

    Time Temperature Precipitation Wind Pressure Humidity
    00:00 +24°C° 0.2 mm 2 mps 754 mmHg 75%
    01:00 +24°C° 0 mm 2 mps 754 mmHg 76%
    02:00 +24°C° 0.1 mm 2 mps 754 mmHg 76%
    03:00 +23°C° 0.1 mm 2 mps 754 mmHg 76%
    04:00 +23°C° 0.1 mm 2 mps 754 mmHg 76%
    05:00 +24°C° 0 mm 2 mps 755 mmHg 73%
    06:00 +25°C° 0 mm 2 mps 755 mmHg 70%
    07:00 +27°C° 0 mm 2 mps 755 mmHg 66%
    08:00 +28°C° 0 mm 2 mps 755 mmHg 59%
    09:00 +30°C° 0 mm 1 mps 755 mmHg 52%
    10:00 +32°C° 0 mm 1 mps 755 mmHg 45%
    11:00 +33°C° 0 mm 1 mps 755 mmHg 44%
    12:00 +34°C° 0 mm 2 mps 755 mmHg 43%
    13:00 +35°C° 0 mm 2 mps 755 mmHg 42%
    14:00 +34°C° 0 mm 3 mps 754 mmHg 45%
    15:00 +34°C° 0 mm 3 mps 754 mmHg 49%
    16:00 +33°C° 0 mm 3 mps 754 mmHg 53%
    17:00 +31°C° 0.1 mm 3 mps 754 mmHg 57%
    18:00 +29°C° 0.1 mm 3 mps 755 mmHg 62%
    19:00 +28°C° 0.1 mm 3 mps 755 mmHg 66%
    20:00 +27°C° 0.1 mm 3 mps 755 mmHg 67%
    21:00 +26°C° 0.1 mm 3 mps 755 mmHg 69%
    22:00 +26°C° 0.1 mm 3 mps 755 mmHg 70%
    23:00 +25°C° 0.3 mm 3 mps 755 mmHg 71%

    Tomorrow, 19 August, Sunday

    Time Temperature Precipitation Wind Pressure Humidity
    00:00 +25°C° 0.3 mm 3 mps 755 mmHg 73%
    01:00 +24°C° 0.3 mm 3 mps 755 mmHg 74%
    02:00 +24°C° 0.2 mm 3 mps 755 mmHg 74%
    03:00 +24°C° 0.2 mm 3 mps 755 mmHg 74%
    04:00 +24°C° 0.2 mm 2 mps 755 mmHg 74%
    05:00 +25°C° 0.2 mm 2 mps 755 mmHg 72%
    06:00 +25°C° 0.2 mm 3 mps 755 mmHg 70%
    07:00 +26°C° 0.2 mm 3 mps 755 mmHg 68%
    08:00 +28°C° 0 mm 2 mps 755 mmHg 60%
    09:00 +30°C° 0 mm 2 mps 755 mmHg 52%
    10:00 +32°C° 0 mm 2 mps 755 mmHg 44%
    11:00 +34°C° 0 mm 2 mps 755 mmHg 42%
    12:00 +35°C° 0 mm 3 mps 755 mmHg 41%
    13:00 +36°C° 0 mm 3 mps 755 mmHg 39%
    14:00 +34°C° 0 mm 3 mps 755 mmHg 43%
    15:00 +32°C° 0 mm 2 mps 754 mmHg 48%
    16:00 +31°C° 0 mm 2 mps 754 mmHg 53%
    17:00 +30°C° 0 mm 2 mps 754 mmHg 56%
    18:00 +29°C° 0 mm 2 mps 754 mmHg 60%
    19:00 +28°C° 0 mm 2 mps 754 mmHg 64%
    20:00 +27°C° 0.1 mm 3 mps 754 mmHg 65%
    21:00 +26°C° 0.1 mm 3 mps 755 mmHg 66%
    22:00 +25°C° 0.1 mm 3 mps 755 mmHg 67%
    23:00 +25°C° 0.1 mm 3 mps 755 mmHg 68%

    Day after tomorrow, 20 August, Monday

    Time Temperature Precipitation Wind Pressure Humidity
    00:00 +25°C° 0.1 mm 3 mps 754 mmHg 68%
    01:00 +24°C° 0.1 mm 3 mps 754 mmHg 69%
    02:00 +24°C° 0.1 mm 3 mps 754 mmHg 69%
    03:00 +24°C° 0.1 mm 3 mps 754 mmHg 69%
    04:00 +24°C° 0.1 mm 3 mps 754 mmHg 69%
    05:00 +25°C° 0 mm 3 mps 754 mmHg 67%
    06:00 +26°C° 0 mm 3 mps 754 mmHg 65%
    07:00 +27°C° 0 mm 3 mps 754 mmHg 63%
    08:00 +29°C° 0 mm 3 mps 754 mmHg 56%
    09:00 +31°C° 0 mm 3 mps 754 mmHg 50%
    10:00 +34°C° 0 mm 2 mps 754 mmHg 43%
    11:00 +34°C° 0 mm 2 mps 754 mmHg 41%
    12:00 +35°C° 0 mm 2 mps 754 mmHg 40%
    13:00 +35°C° 0 mm 2 mps 754 mmHg 38%
    14:00 +34°C° 0 mm 2 mps 753 mmHg 43%
    15:00 +32°C° 0 mm 2 mps 753 mmHg 47%
    16:00 +31°C° 0 mm 2 mps 753 mmHg 51%
    17:00 +30°C° 0 mm 2 mps 753 mmHg 55%
    18:00 +29°C° 0 mm 2 mps 753 mmHg 58%
    19:00 +28°C° 0 mm 2 mps 753 mmHg 61%
    20:00 +27°C° 0.1 mm 2 mps 753 mmHg 63%
    21:00 +26°C° 0.1 mm 2 mps 754 mmHg 64%
    22:00 +25°C° 0.1 mm 3 mps 754 mmHg 65%
    23:00 +25°C° 0 mm 3 mps 754 mmHg 66%

    21 August, Tuesday

    Time Temperature Precipitation Wind Pressure Humidity
    00:00 +25°C° 0 mm 3 mps 754 mmHg 66%
    01:00 +24°C° 0 mm 3 mps 754 mmHg 67%
    02:00 +24°C° 0 mm 3 mps 754 mmHg 67%
    03:00 +24°C° 0 mm 3 mps 754 mmHg 68%
    04:00 +22°C° 0 mm 3 mps 754 mmHg 68%
    05:00 +24°C° 0 mm 3 mps 754 mmHg 66%
    06:00 +25°C° 0 mm 3 mps 754 mmHg 64%
    07:00 +27°C° 0 mm 3 mps 754 mmHg 62%
    08:00 +29°C° 0 mm 3 mps 754 mmHg 56%
    09:00 +31°C° 0 mm 3 mps 754 mmHg 50%
    10:00 +34°C° 0 mm 3 mps 754 mmHg 44%
    11:00 +34°C° 0 mm 3 mps 754 mmHg 43%
    12:00 +35°C° 0 mm 3 mps 754 mmHg 41%
    13:00 +36°C° 0 mm 3 mps 754 mmHg 40%
    14:00 +35°C° 0 mm 2 mps 754 mmHg 43%
    15:00 +34°C° 0 mm 2 mps 754 mmHg 46%
    16:00 +32°C° 0 mm 2 mps 754 mmHg 49%
    17:00 +31°C° 0 mm 2 mps 754 mmHg 53%
    18:00 +29°C° 0 mm 2 mps 754 mmHg 57%
    19:00 +28°C° 0 mm 2 mps 754 mmHg 61%
    20:00 +27°C° 0 mm 2 mps 754 mmHg 62%
    21:00 +26°C° 0 mm 2 mps 755 mmHg 64%
    22:00 +26°C° 0 mm 2 mps 755 mmHg 65%
    23:00 +25°C° 0 mm 2 mps 755 mmHg 66%

    22 August, Wednesday

    Time Temperature Precipitation Wind Pressure Humidity
    00:00 +25°C° 0 mm 3 mps 755 mmHg 67%
    01:00 +24°C° 0 mm 3 mps 755 mmHg 68%
    02:00 +24°C° 0.1 mm 3 mps 755 mmHg 69%
    03:00 +24°C° 0.1 mm 3 mps 755 mmHg 69%
    04:00 +24°C° 0.1 mm 3 mps 755 mmHg 69%
    05:00 +25°C° 0 mm 3 mps 755 mmHg 67%
    06:00 +26°C° 0 mm 3 mps 755 mmHg 65%
    07:00 +27°C° 0 mm 3 mps 755 mmHg 63%
    08:00 +29°C° 0 mm 2 mps 755 mmHg 56%
    09:00 +31°C° 0 mm 2 mps 755 mmHg 50%
    10:00 +34°C° 0 mm 2 mps 755 mmHg 44%
    11:00 +35°C° 0 mm 2 mps 755 mmHg 42%
    12:00 +35°C° 0 mm 2 mps 755 mmHg 40%
    13:00 +36°C° 0 mm 2 mps 755 mmHg 38%
    14:00 +35°C° 0 mm 2 mps 755 mmHg 42%
    15:00 +34°C° 0 mm 2 mps 754 mmHg 45%
    16:00 +32°C° 0 mm 2 mps 754 mmHg 49%
    17:00 +31°C° 0 mm 2 mps 754 mmHg 53%
    18:00 +29°C° 0 mm 2 mps 755 mmHg 58%
    19:00 +28°C° 0 mm 2 mps 755 mmHg 63%
    20:00 +27°C° 0 mm 2 mps 755 mmHg 64%
    21:00 +27°C° 0 mm 2 mps 755 mmHg 65%
    22:00 +26°C° 0 mm 2 mps 755 mmHg 66%
    23:00 +26°C° 0 mm 2 mps 755 mmHg 67%

    23 August, Thursday

    Time Temperature Precipitation Wind Pressure Humidity
    00:00 +25°C° 0 mm 2 mps 755 mmHg 68%
    01:00 +25°C° 0 mm 2 mps 755 mmHg 69%
    02:00 +24°C° 0 mm 2 mps 754 mmHg 69%
    03:00 +24°C° 0 mm 2 mps 754 mmHg 70%
    04:00 +24°C° 0 mm 2 mps 754 mmHg 71%
    05:00 +25°C° 0.1 mm 2 mps 754 mmHg 68%
    06:00 +26°C° 0.1 mm 2 mps 754 mmHg 66%
    07:00 +27°C° 0.1 mm 2 mps 754 mmHg 64%
    08:00 +29°C° 0 mm 1 mps 754 mmHg 56%
    09:00 +31°C° 0 mm 1 mps 754 mmHg 48%
    10:00 +34°C° 0 mm 1 mps 754 mmHg 40%
    11:00 +34°C° 0 mm 1 mps 753 mmHg 40%
    12:00 +35°C° 0 mm 2 mps 753 mmHg 39%
    13:00 +36°C° 0 mm 3 mps 753 mmHg 39%
    14:00 +35°C° 0 mm 3 mps 753 mmHg 43%
    15:00 +34°C° 0 mm 2 mps 752 mmHg 47%
    16:00 +32°C° 0 mm 2 mps 752 mmHg 51%
    17:00 +30°C° 0.4 mm 2 mps 752 mmHg 57%
    18:00 +29°C° 0.4 mm 2 mps 752 mmHg 62%
    19:00 +27°C° 0.4 mm 1 mps 752 mmHg 68%
    20:00 +27°C° 0.3 mm 1 mps 753 mmHg 69%
    21:00 +26°C° 0.3 mm 1 mps 753 mmHg 70%
    22:00 +26°C° 0.3 mm 1 mps 753 mmHg 71%
    23:00 +25°C° 0 mm 1 mps 753 mmHg 71%
    Show more